This demonstration page uses our WeatherBlox Daily Observations layout. Learn more.

38.89511, -77.03637

Hourly Observations for September 13, 2019

Temp ( °F °C ) Dew Point ( °F °C ) Humidity (%) Winds ( mph kmh ) Pressure ( in mb ) Visibility ( mi km ) Precip ( " mm )
12:52 am 00:52 Cloudy 76 24.4 70 21.1 82 82 E 14 22 30.18 1022 10 16.09344 0 0
1:52 am 01:52 Cloudy 74 23.3 69 20.6 85 85 ENE 13 20 30.18 1022 10 16.09344 0 0
2:31 am 02:31 Cloudy 74 23.3 69 20.6 85 85 E 14 22 30.21 1023 10 16.09344 0 0
2:52 am 02:52 Cloudy with Light Rain 73 22.8 69 20.6 87 87 ENE 12 19 30.21 1023 10 16.09344 0.001 0.001
3:30 am 03:30 Cloudy with Light Drizzle 72 22.2 69 20.6 91 91 ENE 12 19 30.24 1024 7 11.265408 0.001 0.001
3:52 am 03:52 Cloudy with Light Drizzle 71 21.7 68 20 90 90 E 8 13 30.21 1023 8 12.874752 0.001 0.001
4:02 am 04:02 Cloudy with Light Drizzle 71 21.7 68 20 90 90 E 9 15 30.24 1024 7 11.265408 0.001 0.001
4:10 am 04:10 Cloudy with Light Drizzle 71 21.7 69 20.6 94 94 ENE 12 19 30.24 1024 4 6.437376 0.001 0.001
4:24 am 04:24 Cloudy with Light Drizzle 70 21.1 68 20 93 93 ENE 13 20 30.24 1024 3 4.828032 0.001 0.001
4:36 am 04:36 Cloudy with Light Drizzle 71 21.7 68 20 90 90 E 13 20 30.24 1024 8 12.874752 0.001 0.001
4:44 am 04:44 Cloudy 70 21.1 67 19.4 90 90 ENE 10 17 30.27 1025 10 16.09344 0.001 0.001
4:52 am 04:52 Cloudy with Light Rain 70 21.1 68 20 93 93 ENE 14 22 30.24 1024 7 11.265408 0.001 0.001
5:03 am 05:03 Cloudy with Light Rain 70 21.1 67 19.4 90 90 E 10 17 30.27 1025 8 12.874752 0.001 0.001
5:52 am 05:52 Cloudy 69 20.6 66 18.9 90 90 ENE 14 22 30.27 1025 10 16.09344 0.001 0.001
6:28 am 06:28 Cloudy 69 20.6 66 18.9 90 90 E 14 22 30.3 1026 10 16.09344 0 0
6:52 am 06:52 Cloudy 69 20.6 65 18.3 87 87 E 14 22 30.27 1025 10 16.09344 0 0
7:52 am 07:52 Cloudy 69 20.6 65 18.3 87 87 ENE 10 17 30.3 1026 10 16.09344 0 0
8:52 am 08:52 Cloudy 69 20.6 63 17.2 81 81 E 12 19 30.33 1027 10 16.09344 0 0
9:52 am 09:52 Cloudy 69 20.6 61 16.1 76 76 E 14 22 30.33 1027 10 16.09344 0 0
10:52 am 10:52 Cloudy 70 21.1 61 16.1 73 73 ENE 15 24 30.36 1028 10 16.09344 0 0
11:52 am 11:52 Cloudy 70 21.1 61 16.1 73 73 E 15 24 30.36 1028 10 16.09344 0 0
12:52 pm 12:52 Cloudy 71 21.7 61 16.1 71 71 E 10 17 30.36 1028 10 16.09344 0 0
1:52 pm 13:52 Cloudy 72 22.2 61 16.1 68 68 ENE 13 20 30.36 1028 10 16.09344 0 0
2:49 pm 14:49 Cloudy 72 22 61 16 69 69 E 10 17 30.36 1028 10 16.09344 0 0
2:52 pm 14:52 Cloudy 72 22.2 61 16.1 68 68 E 9 15 30.36 1028 10 16.09344 0 0
3:52 pm 15:52 Cloudy 72 22.2 60 15.6 66 66 E 12 19 30.36 1028 10 16.09344 0 0
4:52 pm 16:52 Cloudy 72 22.2 60 15.6 66 66 E 12 19 30.36 1028 10 16.09344 0 0
5:52 pm 17:52 Cloudy 72 22.2 59 15 64 64 ESE 12 19 30.36 1028 10 16.09344 0 0
6:52 pm 18:52 Cloudy 72 22.2 59 15 64 64 E 8 13 30.36 1028 10 16.09344 0 0
7:52 pm 19:52 Cloudy 71 21.7 60 15.6 68 68 ESE 6 9 30.36 1028 10 16.09344 0 0
8:52 pm 20:52 Cloudy 71 21.7 61 16.1 71 71 ESE 8 13 30.36 1028 10 16.09344 0 0
9:52 pm 21:52 Cloudy 71 21.7 60 15.6 68 68 ESE 9 15 30.36 1028 10 16.09344 0 0
10:52 pm 22:52 Cloudy 70 21.1 59 15 68 68 ESE 9 15 30.36 1028 10 16.09344 0 0
11:52 pm 23:52 Cloudy 69 20.6 59 15 70 70 SE 8 13 30.36 1028 10 16.09344 0 0

Powered by AerisWeather